Miscellaneous Local Product
Issued by NWS Hastings, NE

Home | Current Version | Previous Version | Text Only | Print | Product List | Glossary Off
Versions: 1 2 3 4 5 6 7 8 9 10 11 12 13 14 15 16 17 18 19 20 21 22 23 24 25 26 27 28 29 30 31 32 33 34 35 36 37 38 39 40 41 42 43 44 45 46 47 48 49 50

000
AXUS43 KGID 020702
MISGRI

GID CWA HOURLY WEATHER ROUNDUP
NATIONAL WEATHER SERVICE HASTINGS NE
200 AM CDT SAT MAY 02 2015

NOTE: "FAIR" INDICATES FEW OR NO CLOUDS BELOW 12,000 FEET WITH NO
SIGNIFICANT WEATHER AND/OR OBSTRUCTIONS TO VISIBILITY.

...SOUTH CENTRAL NEBRASKA...

CITY           SKY/WX    TMP DP  RH WIND       PRES   REMARKS
GRAND ISLAND   MOCLDY    61  54  77 S9        29.98S
HASTINGS       MOCLDY    62  51  67 S5        29.97F
KEARNEY        CLOUDY    63  50  63 S12       29.96F
ORD            CLEAR     52  45  77 S5        29.95F
YORK           MOCLDY    59  52  77 S7        29.99F
AURORA         LGT RAIN  62  58  86 CALM      29.99S
LEXINGTON      CLOUDY    63  52  67 SE8       29.95F
HOLDREGE       CLOUDY    64  49  59 S12       29.96F
HEBRON         CLOUDY    60  48  63 S7        29.99S

...NEBRASKA PANHANDLE...

CITY           SKY/WX    TMP DP  RH WIND       PRES   REMARKS
CHADRON        CLEAR     55  46  71 S9        29.92F
ALLIANCE       CLEAR     47  43  86 SW8       29.96F
SCOTTSBLUFF    CLEAR     51  45  79 E6        29.97F
SIDNEY         PTCLDY    47  45  93 SW9       30.01S

...WESTERN AND NORTH CENTRAL NEBRASKA...

CITY           SKY/WX    TMP DP  RH WIND       PRES   REMARKS
VALENTINE      CLEAR     53  41  63 CALM      29.94F
AINSWORTH      CLEAR     53  45  72 SE7       29.95F
ONEILL         CLEAR     54  48  81 SE6       29.97F
BROKEN BOW     MOCLDY    60  48  64 E7        29.95F
IMPERIAL       PTCLDY    58  46  64 S10       29.97F
NORTH PLATTE   RAIN      59  54  83 NE12      29.98F
MCCOOK         CLOUDY    66  49  54 N9        29.92F

...EASTERN NEBRASKA...

CITY           SKY/WX    TMP DP  RH WIND       PRES   REMARKS
NORFOLK        CLEAR     50  44  80 CALM      29.96F
SO SIOUX CITY  CLEAR     51  45  79 E9        29.97F
TEKAMAH        CLEAR     48  44  86 S6        29.99F
COLUMBUS       PTCLDY    54  45  71 CALM      30.00F
ALBION         CLEAR     51  44  77 CALM      29.98F
OMAHA EPPLEY   CLEAR     57  44  62 S10       30.00S
OFFUTT AFB     CLEAR     58  43  57 E5        29.99F
MILLARD        CLEAR     56  44  65 CALM      30.00F
LINCOLN        PTCLDY    56  47  71 CALM      30.00S
NEBRASKA CITY  MOCLDY    61  37  41 S10       30.02F
BEATRICE       MOCLDY    61  46  56 SE5       30.00S
FALLS CITY     RAIN      61  45  55 S9        30.03S

...NORTHERN KANSAS...

CITY           SKY/WX    TMP DP  RH WIND       PRES   REMARKS
GOODLAND       MOCLDY    53  47  79 CALM      30.03F
HILL CITY      CLOUDY    65  48  54 S8        29.98F
NORTON         SUNNY     64  45  48 S15G21    29.94F
PHILLIPSBURG   CLEAR     68  50  52 S12       29.96F
SMITH CENTER   PTCLDY    64  48  55 S12       29.98F
BELOIT         PTCLDY    63  52  67 S7        29.98S
HAYS           CLOUDY    63  46  55 SW16      30.02F
RUSSELL        CLOUDY    64  51  62 S14       30.00S
CONCORDIA      MOCLDY    62  49  62 S15       29.99S
SALINA         CLOUDY    62  49  62 S9        30.01S
TOPEKA         PTCLDY    59  44  57 SE3       30.04F



USA.gov is the U.S. government's official web portal to all federal, state and local government web resources and services.